Location: Cosy Dell
(34.2789°N, 117.4537°W)
Time: 21:01:29
(UTC+00:00)

SeaSat 1 - Pass Details

Date: 14 July 2020
Orbit: 744 x 748 km, 108.0° (Epoch: 13 August)

Event Time Altitude Azimuth Distance (km) Brightness Sun altitude
Rises 10:36:10 0° 9° (N) 3,195 6.7 -22.4°
Reaches altitude 10° 10:38:50 10° 355° (N) 2,268 5.5 -22.0°
Maximum altitude 10:42:37 23° 304° (NW) 1,568 4.0 -21.5°
Enters shadow 10:43:40 21° 286° (WNW) 1,632 3.9 -21.4°
